+ View the NASA Portal
+ Center for Near-Earth Object Studies
IMPORTANT:
The SSD Announcement email list is now available. Major changes are coming in the near future, including possible hostname and/or URL changes. To be notified of such changes, subscribe to this email list.
Please visit
this page
for more details.
Don't show this message again
JPL Small-Body Database Browser
Search:
[
help
]
437552 (2013 YE139)
Classification:
Main-belt Asteroid
SPK-ID:
2437552
[
Ephemeris
|
Orbit Diagram
|
Orbital Elements
|
Mission Design
|
Physical Parameters
|
Discovery Circumstances
]
[ show orbit diagram ]
Orbital Elements at Epoch 2458600.5 (2019-Apr-27.0) TDB
Reference:
JPL 15
(heliocentric ecliptic J2000)
Element
Value
Uncertainty (1-sigma)
Units
e
.1547409233060585
6.7737e-08
a
2.557340231492095
3.3641e-08
au
q
2.161615042863279
1.7003e-07
au
i
12.49923946093023
8.0176e-06
deg
node
268.4422516769865
2.9789e-05
deg
peri
147.4512560815733
4.0439e-05
deg
M
154.2101579617911
3.1063e-05
deg
t
p
2457960.630109714500
(2017-Jul-26.13010971)
0.00012284
TDB
period
1493.761264156509
4.09
2.9475e-05
8.07e-08
d
yr
n
.241002366735814
4.7554e-09
deg/d
Q
2.953065420120911
3.8846e-08
au
Orbit Determination Parameters
# obs. used (total)
182
data-arc span
6817 days (18.66 yr)
first obs. used
2000-09-30
last obs. used
2019-05-31
planetary ephem.
DE431
SB-pert. ephem.
SB431-N16
condition code
0
norm. resid. RMS
.55712
source
ORB
producer
Otto Matic
solution date
2019-Sep-24 07:37:42
Additional Information
Earth MOID
= 1.18457 au
Jupiter MOID
= 2.3842 au
T_jup
= 3.387
[ show covariance matrix ]
[
Ephemeris
|
Orbit Diagram
|
Orbital Elements
|
Mission Design
|
Physical Parameters
|
Discovery Circumstances
]
Physical Parameter Table
Parameter
Symbol
Value
Units
Sigma
Reference
Notes
absolute magnitude
H
16.3
n/a
MPO434611
437552 (2013 YE139)
Discovered 2000-Sep-30 by LINEAR at Socorro
Reference:
Last Updated:
2015-06-04
Alternate Designations
2013 YE139
= 2000 SL276 = 2004 RP342
[
Ephemeris
|
Orbit Diagram
|
Orbital Elements
|
Mission Design
|
Physical Parameters
|
Discovery Circumstances
]
2019-Dec-15 08:52 UT
(server date/time)
Site Manager:
Ryan S. Park
Webmaster
:
Alan B. Chamberlin